Content
SEND FEEDBACK

Daily
Averages
Monthly
Summary
France

OISSEL, FRANCE


Home > Europe > France
Elevation: 515 feet     Latitude: 49 22N     Longitude: 001 10E

WEATHER
 
SELECT A DAY
Number of Records: 182,802;   Date Range: 7/1/96 - 11/26/14
 
SHARE

PRINT THIS DATA

[ ← Previous Day ]
WEATHER ALMANAC - JANUARY 11, 2013
[ Next Day → ]
[ °C ]   °F
Weather ElementAverageHighLow
Temperature39.8 °F46.4 °F (2:30 pm)33.8 °F (8:00 am)
Dewpoint37.4 °F42.8 °F (12:30 am)32 °F (8:00 am)
Humidity91.1 %100 % (12:30 am)76 % (2:30 pm)
Barometer30.04 in30.10 in (1:00 pm)29.95 in (12:30 am)
Wind Speed5.5 mph11.5 mph (5:30 am)
Weather ElementAverage
Visibility3.9 mi
Wind DirectionW (269.6 °)

Weather ElementTotal
Precipitation---
Heating Degree Days24.9 (Base 65)
Averaged from 50 records on January 11, 2013
WEATHER CONDITIONS BREAKOUT
WIND DIRECTION BREAKOUT
WEATHER BY HOUR - JANUARY 11, 2013
[ °C ]   °F
Local TimeTemperatureDewpointHumidityBarometerVisibilityWind DirectionWind SpeedGust SpeedPrecipitationEventsConditions
12:30 AM42.8 °F42.8 °F100 %29.95 in0.7 miWNW (290°)8.1 mphRainLight Rain
1:00 AM43.0 °F42.0 °F95 %29.96 in1.0 miNW (310°)8.1 mphRainLight Rain
1:00 AM42.8 °F42.8 °F100 %29.95 in1.4 miNW (310°)9.2 mphRainLight Rain
1:30 AM42.8 °F41.0 °F93 %29.95 in4.3 miNNW (340°)10.4 mphRainLight Rain
2:00 AM42.8 °F39.2 °F87 %29.95 in6.2 miNNW (330°)8.1 mphRainLight Rain
2:30 AM42.8 °F39.2 °F87 %29.98 in5.6 miNNW (340°)9.2 mphOvercast
3:00 AM42.8 °F39.2 °F87 %29.98 in6.2 miNNW (340°)9.2 mphMostly Cloudy
3:30 AM41.0 °F39.2 °F93 %29.98 in5.0 miNNW (340°)8.1 mphMostly Cloudy
4:00 AM41.0 °F39.2 °F93 %29.98 in5.6 miNNW (340°)10.4 mphOvercast
4:30 AM41.0 °F37.4 °F87 %29.98 in6.2 miNNW (340°)10.4 mphOvercast
5:00 AM41.0 °F37.4 °F87 %30.01 in5.6 miNNW (340°)10.4 mphOvercast
5:30 AM39.2 °F35.6 °F87 %30.01 in5.6 miNorth (350°)11.5 mphScattered Clouds
6:00 AM37.4 °F35.6 °F93 %30.01 in6.2 miNNW (340°)9.2 mphPartly Cloudy
6:30 AM37.4 °F33.8 °F87 %30.01 in5.0 miNNW (340°)8.1 mph
7:00 AM36.0 °F34.0 °F90 %30.06 in5.0 miNorth (350°)6.9 mphPartly Cloudy
7:00 AM35.6 °F33.8 °F93 %30.04 in4.3 miNorth (350°)6.9 mph
7:30 AM35.6 °F33.8 °F93 %30.04 inNW (310°)3.5 mphMist
8:00 AM33.8 °F32.0 °F93 %30.06 in2.8 miNW (320°)2.3 mphMist
8:30 AM35.6 °F33.8 °F93 %30.06 inWest (280°)3.5 mphMist
9:00 AM35.6 °F33.8 °F93 %30.06 inWest (270°)3.5 mphOvercast
9:30 AM37.4 °F35.6 °F93 %30.06 inWest (270°)3.5 mphOvercast
10:00 AM37.4 °F37.4 °F100 %30.09 inWest (270°)4.6 mphOvercast
10:30 AM39.2 °F37.4 °F93 %30.09 in3.1 miWSW (250°)5.8 mphOvercast
11:00 AM39.2 °F37.4 °F93 %30.09 inWSW (250°)3.5 mphOvercast
11:30 AM41.0 °F39.2 °F93 %30.09 in3.7 miWSW (250°)4.6 mphRainLight Rain
12:00 PM41.0 °F39.2 °F93 %30.09 in3.7 miSW (230°)4.6 mphOvercast
12:30 PM41.0 °F39.2 °F93 %30.09 in3.1 miWSW (240°)5.8 mphRainLight Rain
1:00 PM42.0 °F40.0 °F89 %30.10 in5.0 miSW (230°)5.8 mphMostly Cloudy
1:00 PM42.8 °F39.2 °F87 %30.06 in4.3 miSW (230°)5.8 mphMostly Cloudy
1:30 PM42.8 °F41.0 °F93 %30.06 in4.3 miWSW (250°)4.6 mphMostly Cloudy
2:00 PM44.6 °F41.0 °F87 %30.06 in6.2 miVariable2.3 mphMostly Cloudy
2:30 PM46.4 °F39.2 °F76 %30.06 in6.2 miWest (280°)4.6 mphOvercast
3:00 PM44.6 °F39.2 °F81 %30.06 in0.9 miNW (320°)5.8 mphRainLight Rain
3:30 PM42.8 °F39.2 °F87 %30.06 in6.2 miNW (310°)3.5 mphMostly Cloudy
4:00 PM42.8 °F41.0 °F93 %30.06 in6.2 miNNW (330°)4.6 mphMostly Cloudy
4:30 PM44.6 °F41.0 °F87 %30.06 in6.2 miNW (310°)3.5 mphMostly Cloudy
5:00 PM44.6 °F39.2 °F81 %30.06 in6.2 miNNW (340°)5.8 mphMostly Cloudy
5:30 PM41.0 °F39.2 °F93 %30.06 in6.2 miNNW (340°)4.6 mphMostly Cloudy
6:00 PM41.0 °F39.2 °F93 %30.06 in6.2 miNorth (350°)3.5 mphPartly Cloudy
6:30 PM41.0 °F37.4 °F87 %30.06 in6.2 miNNW (340°)3.5 mphMostly Cloudy
7:00 PM39.2 °F35.6 °F87 %30.06 in6.2 miNW (310°)2.3 mphPartly Cloudy
7:30 PM37.4 °F35.6 °F93 %30.04 in1.4 miVariable2.3 mphPartly Cloudy
8:00 PM37.4 °F35.6 °F93 %30.04 in0.1 miWest (280°)2.3 mphFogFog
8:30 PM35.6 °F33.8 °F93 %30.04 in0.1 miCalmFogFog
9:00 PM35.6 °F33.8 °F93 %30.04 in0.2 miSouth (190°)1.2 mphFogFog
9:30 PM35.6 °F33.8 °F93 %30.04 in0.2 miSSE (150°)2.3 mphFogFog
10:00 PM35.6 °F33.8 °F93 %30.04 in0.2 miSE (130°)3.5 mphFogFog
10:30 PM35.6 °F35.6 °F100 %30.04 in0.2 miSouth (170°)4.6 mphFogFog
11:00 PM35.6 °F33.8 °F93 %30.04 in0.2 miSouth (170°)5.8 mphFogFog
11:30 PM33.8 °F32.0 °F93 %30.01 in0.2 miSSE (160°)5.8 mphFogFog
Hourly data recorded from LFOP, located miles away from Oissel, France







STORIES FROM OUR PARTNERS